Wind_Speed
24 27 28 27 27 28 25 23 17 4 8 15 19 25 28 34 37 35 35 34 33 32 31 31 31 32 31 32 32 32 30 28 27 25 24 23 22 21
15 22 26 25 27 26 27 28 25 19 5 17 23 21 21 26 32 35 38 36 35 34 34 33 32 33 33 32 32 32 32 32 30 29 28 27 25 23
4 14 20 22 24 27 27 27 25 23 15 19 21 18 21 26 27 29 32 35 35 36 36 34 33 32 33 34 33 33 33 32 33 32 31 30 29 28
7 6 9 21 26 27 27 27 25 24 20 18 18 20 23 25 29 29 28 28 28 30 35 36 34 34 33 33 35 35 35 34 33 33 34 33 32 30
9 7 7 7 19 22 25 24 26 25 25 20 17 19 23 25 27 28 31 30 28 25 25 32 34 33 33 32 31 35 36 35 35 34 35 36 35 34
9 8 8 8 8 15 24 25 23 22 22 20 19 20 21 21 15 22 20 25 27 25 25 25 29 32 35 33 34 36 37 37 37 36 36 37 38 37
9 8 8 6 5 9 15 18 22 21 19 17 15 13 12 10 18 15 12 19 22 22 21 24 26 27 29 31 33 35 37 38 38 38 38 38 39 39
15 12 9 11 10 5 11 19 17 19 18 16 13 12 15 16 16 15 20 15 6 21 25 25 21 22 24 28 31 33 32 33 33 34 36 37 38 39
20 17 15 17 17 14 9 11 20 23 24 18 18 19 17 19 19 18 20 18 18 17 18 24 30 29 28 31 29 31 32 30 28 30 33 33 35 37
22 21 20 21 22 16 10 7 8 7 9 12 21 25 25 24 19 20 20 23 26 27 23 17 23 30 30 34 34 34 36 36 32 31 31 29 32 35
19 25 24 26 23 17 12 11 9 9 6 6 11 18 26 22 18 18 19 19 13 16 23 20 15 22 28 33 35 36 36 41 39 35 35 35 31 31
19 20 24 24 23 21 20 18 19 20 18 14 9 6 3 3 9 12 16 16 11 4 17 19 20 19 7 24 33 35 35 34 36 41 39 39 32 30
19 20 22 22 25 26 25 24 21 15 14 14 13 14 9 7 6 3 5 8 13 14 10 15 11 19 16 12 13 22 26 31 35 38 41 42 40 36
20 20 20 21 25 28 29 26 23 22 22 22 23 26 27 23 20 17 11 10 11 14 20 22 15 16 18 14 14 26 32 36 37 34 31 32 40 38
18 19 20 24 26 29 31 31 31 31 28 26 23 22 24 23 20 20 16 13 10 6 7 10 11 14 21 18 14 20 25 29 32 35 33 32 32 35
16 21 24 26 28 28 31 32 32 30 25 23 21 22 26 28 27 27 26 27 16 13 12 13 17 16 19 19 17 21 23 16 17 24 29 33 34 36
19 22 25 28 29 30 27 29 29 31 31 28 25 24 24 26 26 25 25 23 19 22 25 26 24 20 14 15 17 20 24 27 32 35 32 31 32 33
21 22 20 20 21 21 23 21 25 27 27 25 26 25 24 23 23 22 24 23 21 23 21 25 29 30 23 7 8 13 10 13 14 19 30 29 33 35
21 18 17 18 18 19 21 22 18 21 23 25 25 25 24 22 22 22 21 20 19 19 20 21 22 20 7 5 16 8 31 30 25 25 19 22 27 32
15 15 15 15 15 14 16 18 18 17 21 21 23 23 26 21 20 20 20 20 21 20 19 18 19 21 16 9 15 26 17 23 23 23 25 28 23 29
8 9 10 11 12 12 12 13 14 13 16 15 17 18 22 21 17 18 19 20 20 17 18 19 21 25 21 19 13 17 22 22 17 21 25 24 19 17
5 8 7 8 10 10 11 12 13 14 15 14 15 16 19 18 16 18 19 19 19 18 19 21 24 23 20 16 17 19 25 27 26 24 17 14 14 6
6 8 9 10 12 10 11 13 12 14 14 14 15 15 16 15 15 16 17 17 17 19 17 21 22 21 19 18 20 20 19 25 28 26 23 20 18 21
Wind_Direction
226 220 224 238 239 238 235 222 204 188 219 238 229 241 243 245 248 248 247 247 243 241 241 240 240 239 241 244 246 248 249 248 248 247 246 250 253 256
226 229 230 228 237 244 236 223 218 222 234 225 235 234 249 254 252 253 251 250 248 243 243 242 242 242 242 245 247 250 252 252 252 252 251 251 253 254
249 233 237 241 229 219 224 222 223 222 236 254 254 253 255 255 252 252 251 251 253 245 242 244 243 245 246 246 248 250 252 254 254 254 255 255 255 256
306 266 250 250 228 226 224 226 232 227 231 246 247 245 250 251 246 246 248 252 255 251 243 242 245 246 247 248 249 250 251 253 255 255 256 256 256 257
333 307 280 304 240 231 232 227 235 234 236 236 253 257 253 248 247 249 250 247 252 255 254 246 244 247 248 248 251 250 251 252 255 256 256 256 256 257
354 347 337 298 288 247 239 227 237 237 236 237 255 258 240 242 244 234 223 232 243 247 248 245 243 243 247 251 253 252 253 253 254 256 257 257 256 256
20 41 8 360 322 263 241 241 236 229 236 228 229 249 261 244 231 237 236 235 238 240 242 242 241 238 240 242 248 251 249 250 251 254 255 256 257 257
23 14 0 350 338 325 248 237 234 232 228 213 227 228 240 249 244 237 240 225 235 239 236 245 238 243 243 246 246 247 249 248 247 250 252 255 257 257
29 24 19 6 359 337 319 273 257 250 239 246 232 239 244 255 252 252 256 242 234 239 238 238 244 247 251 254 253 247 249 247 251 255 254 256 258 258
42 39 33 22 13 357 343 327 316 318 274 273 268 257 259 259 254 247 264 270 264 254 247 234 241 243 249 254 262 258 254 250 255 263 253 260 261 259
45 44 42 35 26 18 16 12 357 329 301 304 269 263 251 247 255 262 262 252 254 252 241 229 241 249 258 264 264 259 257 257 261 265 260 263 266 259
42 43 44 44 41 40 38 29 19 4 3 345 322 306 307 285 269 272 267 259 256 249 241 234 244 240 252 258 262 266 266 262 261 258 262 264 261 252
36 34 37 43 44 48 51 46 37 27 31 27 19 13 26 23 17 278 284 281 289 262 249 241 240 238 230 251 248 264 268 269 270 267 260 257 250 249
45 42 38 42 47 48 52 50 49 45 43 34 26 18 11 6 353 339 316 296 282 273 271 276 259 238 241 251 253 267 269 268 267 264 269 264 251 251
55 51 51 49 50 49 47 48 45 44 41 35 27 12 17 6 6 356 350 337 310 310 295 295 296 283 262 257 268 266 259 260 259 262 265 263 253 252
52 50 51 52 51 46 43 44 43 42 37 32 22 13 26 16 21 10 6 7 355 334 337 335 336 330 311 279 277 264 269 245 259 251 256 255 256 257
57 52 44 41 39 38 37 35 36 34 34 30 25 20 15 15 16 14 11 9 13 357 350 345 345 340 318 295 292 272 265 262 265 269 261 254 259 264
53 48 42 39 38 34 32 31 31 29 27 25 25 22 17 12 8 6 13 12 2 353 350 356 357 359 358 355 30 358 348 349 341 311 266 252 261 265
57 53 49 44 38 35 31 32 27 25 23 24 23 19 15 12 11 8 4 1 356 350 346 359 1 7 357 337 311 326 350 338 339 332 334 288 263 273
50 48 46 39 34 31 27 22 21 15 16 15 16 15 13 8 4 2 359 354 347 342 342 352 359 356 339 314 308 312 338 328 336 327 323 308 308 283
37 33 29 25 21 18 13 14 11 8 4 4 4 5 4 4 357 354 349 346 345 340 335 338 340 333 331 328 311 317 322 326 328 321 317 311 309 298
357 1 0 359 353 354 357 358 353 353 351 351 352 352 352 357 349 346 343 337 336 330 326 328 331 338 335 329 316 321 320 326 327 326 322 302 289 299
308 329 338 334 340 323 334 344 337 335 335 333 336 339 342 343 339 337 334 331 326 325 328 329 330 334 327 320 317 314 327 324 323 326 328 334 317 300
Height
797 800 802 806 809 812 815 818 821 823 824 823 827 826 829 831 833 836 839 842 846 849 851 854 857 860 863 865 868 871 874 877 879 881 883 884 886 887
794 796 799 802 805 807 811 814 816 817 819 819 820 821 823 825 826 829 831 835 838 842 845 848 850 853 856 859 862 865 868 870 873 875 877 879 881 882
793 794 795 799 801 803 805 809 811 813 814 816 816 818 820 820 821 822 825 827 829 833 837 841 844 847 850 853 856 858 861 864 866 869 872 873 874 876
790 792 793 796 796 798 801 803 807 808 810 811 812 813 815 815 817 818 819 820 822 824 829 834 837 840 842 845 848 851 854 856 859 862 864 866 868 870
791 791 792 793 793 793 797 798 801 803 805 806 806 809 809 810 812 813 813 814 815 818 821 826 829 832 835 838 840 842 845 848 851 853 856 858 861 863
794 792 792 790 790 790 792 793 797 799 801 802 803 803 804 805 807 807 807 808 810 813 816 818 822 824 828 830 833 835 837 840 842 845 847 849 851 854
792 790 791 789 789 789 790 791 792 793 797 796 799 800 801 802 804 803 803 804 807 808 811 812 814 816 818 821 823 825 827 830 832 834 837 839 841 844
792 792 791 787 786 786 786 787 789 790 791 792 794 795 797 800 800 799 801 802 803 804 806 807 809 811 810 813 814 817 819 821 822 824 826 829 832 834
795 794 792 790 785 784 784 784 785 787 788 789 788 791 793 795 797 798 799 799 798 799 800 801 802 803 804 805 808 810 812 813 815 817 818 820 822 823
801 798 796 791 787 786 784 782 783 783 783 784 785 788 789 790 792 793 795 795 795 795 796 795 795 796 798 800 801 802 804 806 807 809 810 812 812 814
806 801 797 792 792 787 784 783 783 783 781 782 782 783 784 785 787 788 789 791 789 788 789 789 790 790 792 791 793 795 796 798 799 800 802 804 804 805
808 805 801 799 797 794 787 786 783 784 777 779 780 780 779 780 782 783 785 785 784 783 783 785 783 786 785 782 783 784 787 789 791 792 791 794 797 797
812 809 807 805 801 796 792 790 790 789 784 782 781 781 778 777 777 779 780 781 781 779 780 781 778 778 779 776 776 779 781 781 781 781 781 782 785 788
815 814 811 808 804 800 795 796 793 790 784 786 787 785 782 780 779 779 777 776 778 777 777 776 774 773 772 772 771 771 772 772 772 770 771 771 774 777
820 818 814 810 807 804 801 797 794 793 793 794 793 796 789 789 785 780 777 773 774 773 772 772 769 768 767 765 764 765 766 764 765 765 763 764 766 767
821 819 816 813 811 810 807 804 803 803 802 800 800 799 789 791 786 787 780 774 772 768 769 769 768 765 761 761 760 758 759 759 757 757 757 757 758 758
824 821 819 816 814 813 812 811 809 808 805 805 803 801 799 796 792 792 786 782 781 776 770 766 765 762 760 759 755 755 752 753 753 751 751 750 750 751
826 824 823 821 820 819 818 816 814 812 811 810 808 805 803 801 797 796 791 786 785 783 780 772 767 759 756 757 756 752 751 751 750 747 743 743 742 743
828 828 827 825 824 823 821 819 818 817 816 813 811 810 807 804 802 799 797 794 790 787 785 779 775 772 768 767 759 759 755 752 747 746 743 741 737 736
831 830 829 828 827 825 824 822 820 818 816 815 813 811 809 807 805 802 799 796 792 788 785 781 779 778 776 771 764 758 759 755 751 747 743 739 734 732
832 831 830 829 828 826 825 824 822 821 820 818 816 814 812 810 807 804 800 797 794 791 786 782 779 778 773 768 763 757 754 754 752 749 744 739 732 726
830 829 828 827 826 825 824 822 821 819 817 816 815 813 811 809 807 804 800 796 793 790 786 782 778 774 772 769 763 758 753 746 746 744 740 738 735 729
827 826 825 824 823 822 821 819 817 816 814 813 811 810 808 807 805 803 800 797 794 790 786 781 777 774 771 767 762 757 752 748 741 736 733 730 727 726